KD5OH Weather Reports


Display with metric or nautical units.
time (UTC)temp
F
wind
direction
speed
MPH
gust
MPH
rain 1hr
in
rain 24hr
in
rain mn
in
humidity
%
barometer
mb
20260901203146 90 293 2.0 11.0 0.00 0.02 0.00 25 1018.9
20260901201635 90 231 5.0 10.0 0.00 0.02 0.00 25 1019.1
20260901200151 90 289 5.0 12.0 0.00 0.02 0.00 27 1019.4
20260901194642 90 256 4.0 12.0 0.00 0.02 0.00 26 1019.6
20260901193132 89 279 1.0 9.0 0.00 0.02 0.00 27 1019.7
20260901191627 88 162 0.0 6.0 0.00 0.02 0.00 28 1020.1
20260901190136 86 310 5.0 10.0 0.00 0.02 0.00 31 1020.2
20260901184627 87 290 5.0 9.0 0.00 0.02 0.00 31 1020.3
20260901183123 87 239 0.0 8.0 0.00 0.02 0.00 33 1020.4
20260901181635 86 256 3.0 7.0 0.00 0.02 0.00 35 1020.8
20260901180130 85 319 0.0 5.0 0.00 0.02 0.00 35 1020.9
20260901174621 84 333 3.0 6.0 0.00 0.02 0.00 37 1021.2
20260901173137 83 314 1.0 7.0 0.00 0.02 0.00 40 1021.4
20260901171628 81 319 3.0 7.0 0.00 0.02 0.00 43 1021.6
20260901170201 81 318 1.0 6.0 0.00 0.02 0.00 45 1021.2
20260901164634 79 9 2.0 6.0 0.00 0.02 0.00 45 1021.3
20260901163127 78 301 0.0 2.0 0.00 0.02 0.00 50 1021.3
20260901161621 76 312 0.0 2.0 0.00 0.02 0.00 54 1021.2
20260901160153 76 313 0.0 2.0 0.00 0.02 0.00 56 1021.1
20260901154628 75 270 0.0 3.0 0.00 0.02 0.00 55 1021.0
20260901153140 75 215 0.0 1.0 0.00 0.02 0.00 57 1020.9
20260901151653 74 284 0.0 1.0 0.00 0.02 0.00 60 1020.8
20260901150127 73 295 0.0 3.0 0.00 0.02 0.00 62 1020.8
20260901144659 72 265 1.0 5.0 0.00 0.02 0.00 60 1020.9
20260901143150 74 233 2.0 3.0 0.00 0.02 0.00 57 1020.7
20260901141625 72 156 0.0 2.0 0.00 0.02 0.00 61 1020.7
20260901140135 71 123 1.0 2.0 0.00 0.02 0.00 64 1020.5
20260901134630 68 184 0.0 0.0 0.00 0.02 0.00 70 1020.4
20260901133142 64 184 0.0 0.0 0.00 0.02 0.00 75 1020.3
20260901131653 63 184 0.0 0.0 0.00 0.02 0.00 75 1020.2
20260901130129 63 184 0.0 0.0 0.00 0.02 0.00 75 1020.1
20260901124700 63 184 0.0 0.0 0.00 0.02 0.00 75 1020.0
20260901123155 63 184 0.0 0.0 0.00 0.02 0.00 74 1019.7
20260901121624 64 126 0.0 0.0 0.00 0.02 0.00 73 1019.4
20260901120122 64 126 0.0 0.0 0.00 0.02 0.00 73 1019.3
20260901113130 65 126 0.0 0.0 0.00 0.02 0.00 72 1019.1
20260901111622 65 126 0.0 0.0 0.00 0.02 0.00 72 1019.0
20260901110134 65 126 0.0 0.0 0.00 0.02 0.00 72 1019.1
20260901104625 66 126 0.0 0.0 0.00 0.02 0.00 71 1019.1
20260901103122 66 126 0.0 0.0 0.00 0.02 0.00 71 1019.1
20260901101635 66 126 0.0 0.0 0.00 0.02 0.00 72 1019.2
20260901100130 66 130 0.0 3.0 0.00 0.02 0.00 71 1019.1
20260901094641 66 251 0.0 1.0 0.00 0.02 0.00 72 1019.1
20260901093137 66 249 0.0 0.0 0.00 0.02 0.00 72 1018.9
20260901091630 66 246 0.0 1.0 0.00 0.02 0.00 71 1018.8
20260901090141 68 283 0.0 0.0 0.00 0.02 0.00 69 1018.7
20260901084637 68 266 1.0 3.0 0.00 0.02 0.00 68 1018.9
20260901083129 70 301 0.0 0.0 0.00 0.02 0.00 65 1018.9
20260901081624 71 301 0.0 0.0 0.00 0.02 0.00 61 1019.1
20260901080136 71 301 0.0 0.0 0.00 0.02 0.00 64 1019.2
20260901074628 71 301 0.0 0.0 0.00 0.02 0.00 62 1019.0
20260901073142 72 301 0.0 0.0 0.00 0.02 0.00 59 1019.3
20260901071633 72 301 0.0 0.0 0.00 0.02 0.00 59 1019.4
20260901070130 72 301 0.0 0.0 0.00 0.02 0.00 57 1019.2
20260901064702 73 288 1.0 2.0 0.00 0.02 0.00 55 1019.3
20260901063133 74 245 0.0 0.0 0.00 0.02 0.00 52 1019.2
20260901060122 75 214 1.0 3.0 0.00 0.02 0.00 49 1019.4
20260901054637 76 83 4.0 12.0 0.00 0.02 0.02 45 1019.2
20260901053130 77 99 6.0 13.0 0.00 0.02 0.02 45 1019.4
20260901051646 75 119 0.0 1.0 0.01 0.02 0.02 52 1020.0
20260901050138 75 260 0.0 0.0 0.01 0.02 0.02 52 1019.8
20260901044629 76 233 0.0 6.0 0.01 0.02 0.02 50 1019.7
20260901043126 75 74 6.0 15.0 0.01 0.02 0.02 51 1019.2
20260901041636 75 99 12.0 18.0 0.00 0.01 0.01 52 1018.9
20260901040129 76 140 10.0 17.0 0.01 0.01 0.01 50 1019.1
20260901034702 76 131 12.0 20.0 0.01 0.01 0.01 50 1018.8
20260901033154 76 206 16.0 29.0 0.01 0.01 0.01 52 1018.5
20260901031628 87 227 12.0 18.0 0.00 0.00 0.00 32 1016.8
20260901030140 90 127 10.0 16.0 0.00 0.00 0.00 20 1015.6
20260901024635 88 96 7.0 10.0 0.00 0.00 0.00 24 1015.2
20260901023128 87 104 1.0 4.0 0.00 0.00 0.00 24 1015.0
20260901021625 88 149 1.0 4.0 0.00 0.00 0.00 23 1014.6
20260901020137 86 112 1.0 3.0 0.00 0.00 0.00 25 1014.6
20260901014648 87 349 0.0 1.0 0.00 0.00 0.00 22 1014.2
20260901013123 88 346 0.0 1.0 0.00 0.00 0.00 21 1014.1
20260901011635 90 341 0.0 1.0 0.00 0.00 0.00 20 1014.1
20260901010131 92 298 0.0 1.0 0.00 0.00 0.00 16 1014.2
20260901004622 95 233 2.0 6.0 0.00 0.00 0.00 13 1013.9
20260901003134 97 212 4.0 10.0 0.00 0.00 0.00 12 1014.0
20260901001630 96 237 5.0 9.0 0.00 0.00 0.00 13 1014.1
20260901000120 95 219 6.0 10.0 0.00 0.00 0.00 13 1014.1
20260831234636 95 242 4.0 9.0 0.00 0.00 0.00 13 1014.0
20260831233128 97 239 7.0 13.0 0.00 0.00 0.00 12 1013.8
20260831231623 98 237 9.0 16.0 0.00 0.00 0.00 12 1013.8
20260831230137 99 182 6.0 13.0 0.00 0.00 0.00 11 1013.9
20260831224628 100 227 4.0 8.0 0.00 0.00 0.00 12 1013.9
20260831223123 99 144 0.0 10.0 0.00 0.00 0.00 12 1014.1
20260831221634 100 203 9.0 13.0 0.00 0.00 0.00 12 1014.5
20260831220130 100 192 7.0 11.0 0.00 0.00 0.00 12 1014.6
20260831214642 100 229 0.0 6.0 0.00 0.00 0.00 12 1014.6
20260831213137 100 176 6.0 14.0 0.00 0.00 0.00 12 1014.9
20260831211628 98 248 3.0 9.0 0.00 0.00 0.00 15 1015.1
20260831210140 99 212 1.0 8.0 0.00 0.00 0.00 16 1015.5
20260831204635 97 357 4.0 8.0 0.00 0.00 0.00 18 1015.9